ATLAS 5 CENTAUR R/B, 53356

Orbit data source: Space-Track

ATLAS 5 CENTAUR R/B, 53356 is space debris in HEO originally from a launch on Thu, 04 Aug 2022 UTC launched from the Air Force Eastern Test Range (AFETR). Debris objects in space refer to the collection of defunct objects orbiting the Earth. Examples of debris include non-operational satellites, rocket bodies, and fragments generated from explosions, collisions, or faulty payload assembly.

Loading next visibility...
Identifier
53356, 2022-092B
Orbit
HEO
Country
Flag of USUS
Related business
Flag of USUnited Launch Alliance/Lockheed Martin (US)
Manufacturer
ULA Decatur
Mission
Spacecraft
Bus & Motor
CENTAUR SEC, RL10C-1-1
Mass
~2,020 kg wet, 2,020 kg dry
Launch date (UTC)
2022-08-04 (4 years ago)
Launch vehicle
Unknown
Launch site
Air Force Eastern Test Range (AFETR)
Object type
Payload
Rocket body
Debris
Shape & HBR
Cyl + 1 Nozzle, 5.8 m
Radar Cross Section
32.260 m², Large (>1 m²)

Expand to show TLE details & history
Last TLE update: 10 hours ago

TLE from 10 hours ago
0 ATLAS 5 CENTAUR R/B
1 53356U 22092B   26093.85539041 -.00000117  00000-0  00000-0 0  9992
2 53356  15.5924 116.7585 5641777 179.1419 182.6409  1.99534127 26719
Epoch: 2026-04-03T20:31Z
TLE epoch observation values (Epoch: 2026-04-03T20:31:45.731Z)
Latitude
-0°
Longitude
-23.32457°
Altitude
35,272.718 km
Speed
2.046 km/s
True Right ascension
07h 47m 11s
True Declination
0° 00' 00"
Sunlit
Object was in daylight at epoch
Visualization orbit readout
Latitude
Unknown
Longitude
Unknown
Altitude
Unknown
Speed
Unknown
Apparent Right ascension
Unknown
Apparent Declination
Unknown
Sunlit
N/A
Visualization observer readout
Local Sidereal Time
12:23:58
Azimuth
Unknown
Elevation
Unknown
Doppler factor
Unknown
Orbital elements
Apogee altitude
35,313.863 km
Perigee altitude
5,238.384 km
Semi-major axis
26,654.261 km
Eccentricity
0.56418
Inclination
15.5924°
RAAN
116.7585°
Arg. of periapsis
179.1419°
True anomaly
180.8913°
Mean anomaly
182.6409°
Eccentric anomaly
181.68845°
Mean motion
0.49876 °/min
Orbital period
721.79 mins
BSTAR
0
Loading maneuver chart data...
Computing Atmospheric mass density...
Loading historical data...
Loading historical data...
Loading historical data...
Loading historical data...
Loading historical data...
Loading historical data...
Loading historical data...
Other satellites on launch #92 in the year 2022 (2022-08-04 UTC)

Documentation

Showing up to 5 results
|